(268536) = 2004 TD299 = 2006 AW31

Discovered at Catalina on 2006-01-05 by CSS.

Orbit

Orbit type: Main Belt

Note: WebGL enabled browser required.

epoch2023-09-13.0
epoch JD2460200.5
perihelion date2022-03-01.83328
perihelion JD2459640.33328
argument of perihelion (°)46.15781
ascending node (°)74.81160
inclination (°)2.61829
eccentricity0.0389974
perihelion distance (AU)2.9494963
Tisserand w.r.t. Jupiter3.2
ΔV w.r.t. Earth (km/sec)10.7
semimajor axis (AU)3.0691867
mean anomaly (°)102.68008
mean daily motion (°/day)0.18330270
aphelion distance (AU)3.189
period (years)5.38
P-vector [x]-0.51385373
P-vector [y]0.77340082
P-vector [z]0.37122164
Q-vector [x]-0.85674428
Q-vector [y]-0.48487880
Q-vector [z]-0.17573215
absolute magnitude15.77
phase slope0.15
uncertainty0
referenceMPEC 2023-N53
observations used497
oppositions16
arc length (days)7729
first opposition used2002
last opposition used2023
residual rms (arc-secs)0.75
perturbers coarse indicatorM-v
perturbers precise indicator003Ek
first observation date used2002-05-11.0
last observation date used2023-07-09.0
computer namePan
JD of orbit computation2456937.346944
perihelion JD uncertainty (days)5.4408E-04
argument of perihelion uncertainty (°)1.6808E-04
ascending node uncertainty (°)1.3742E-04
inclination uncertainty (°)3.0593E-06
eccentricity uncertainty 4.7528E-08
perihelion distance uncertainty (AU)1.3998E-07
Minimum Orbit Intersection Distances (in AU)
for orbit epoch: 2460000.5, reference: E2023-N53
Mercury2.60773
Venus2.23153
Earth1.9664
Mars1.29655
Jupiter1.82784
Saturn6.0904
Uranus15.4548
Neptune26.7572

Observations

513 total observations over interval: 2002 05 11.31456 – 2023 07 09.168636
These data are available for download (format description).

Date (UT) J2000 RA J2000 Dec Magn Location Ref
2002 05 11.31456 16 01 44.47 -19 32 42.1 20.2   704 – Lincoln Laboratory ETS, New Mexico MPS 172046
2002 05 11.32915 16 01 43.69 -19 32 40.6 20.3   704 – Lincoln Laboratory ETS, New Mexico MPS 172046
2002 05 11.34375 16 01 42.98 -19 32 38.9 20.5   704 – Lincoln Laboratory ETS, New Mexico MPS 172046
2003 08 24.03648 21 11 53.13 -19 47 26.8 19.1 R 807 – Cerro Tololo Observatory, La Serena MPS 172046
2003 08 24.14308 21 11 48.34 -19 47 46.7   807 – Cerro Tololo Observatory, La Serena MPS 172046
2004 10 13.34064 02 37 12.50 +12 43 46.2 20.4 V 691 – Steward Observatory, Kitt Peak-Spacewatch MPS 118678
2004 10 13.36761 02 37 11.35 +12 43 41.3 20.3 V 691 – Steward Observatory, Kitt Peak-Spacewatch MPS 118678
2004 10 13.39514 02 37 10.17 +12 43 36.2 20.3 V 691 – Steward Observatory, Kitt Peak-Spacewatch MPS 118678
2005 12 29.39227 08 51 14.26 +20 21 44.6   691 – Steward Observatory, Kitt Peak-Spacewatch MPS 159257
2005 12 29.40957 08 51 13.75 +20 21 49.4   691 – Steward Observatory, Kitt Peak-Spacewatch MPS 159257
2005 12 29.42694 08 51 13.08 +20 21 51.5   691 – Steward Observatory, Kitt Peak-Spacewatch MPS 159257
2006 01 05.32755 08 47 03.58 +20 45 39.8 19.9 V 703 – Catalina Sky Survey MPS 159257
2006 01 05.33457 08 47 03.26 +20 45 41.1 21.2 V 703 – Catalina Sky Survey MPS 159257
2006 01 05.34159 08 47 03.04 +20 45 41.5 20.3 V 703 – Catalina Sky Survey MPS 159257
2006 01 05.34861 08 47 02.68 +20 45 43.8 20.4 V 703 – Catalina Sky Survey MPS 159257
2006 01 07.38262 08 45 38.58 +20 53 11.5 20.0 V 691 – Steward Observatory, Kitt Peak-Spacewatch MPS 159257
2006 01 07.40006 08 45 37.84 +20 53 15.7 19.9 V 691 – Steward Observatory, Kitt Peak-Spacewatch MPS 159257
2006 01 07.41751 08 45 37.05 +20 53 19.1 20.1 V 691 – Steward Observatory, Kitt Peak-Spacewatch MPS 159257
2006 01 22.12586 08 33 48.72 +21 49 01.0 20.1 V 691 – Steward Observatory, Kitt Peak-Spacewatch MPS 160566
2006 01 22.14314 08 33 47.81 +21 49 05.2 20.0 V 691 – Steward Observatory, Kitt Peak-Spacewatch MPS 160566
2006 01 22.16041 08 33 46.89 +21 49 09.0 20.1 V 691 – Steward Observatory, Kitt Peak-Spacewatch MPS 160566
2006 01 27.24149 08 29 20.18 +22 07 31.6 19.7 V G96 – Mt. Lemmon Survey MPS 160566
2006 01 27.25152 08 29 19.68 +22 07 33.8 19.7 V G96 – Mt. Lemmon Survey MPS 160566
2006 01 27.25703 08 29 19.35 +22 07 34.8 19.9 V G96 – Mt. Lemmon Survey MPS 160566
2006 01 27.26249 08 29 19.06 +22 07 36.0 19.7 V G96 – Mt. Lemmon Survey MPS 160567
2006 02 04.24454 08 22 26.86 +22 33 38.1 19.9   704 – Lincoln Laboratory ETS, New Mexico MPS 162884
2006 02 04.25749 08 22 26.21 +22 33 40.5 20.1   704 – Lincoln Laboratory ETS, New Mexico MPS 162884
2006 02 04.27072 08 22 25.49 +22 33 42.2 20.2   704 – Lincoln Laboratory ETS, New Mexico MPS 162884
2006 02 07.27178 08 19 58.15 +22 42 17.0 19.9 V G96 – Mt. Lemmon Survey MPS 162884
2006 02 07.27565 08 19 57.93 +22 42 17.7 20.5 V G96 – Mt. Lemmon Survey MPS 162884
2006 02 07.27967 08 19 57.72 +22 42 18.6 20.2 V G96 – Mt. Lemmon Survey MPS 162884
2006 02 07.28354 08 19 57.50 +22 42 19.1 19.7 V G96 – Mt. Lemmon Survey MPS 162884
2007 03 11.46151 14 18 48.88 -10 55 21.2 20.1 V G96 – Mt. Lemmon Survey MPS 203138
2007 03 11.47167 14 18 48.70 -10 55 20.3 20.3 V G96 – Mt. Lemmon Survey MPS 203138
2007 03 11.48189 14 18 48.56 -10 55 19.6 21.1 V G96 – Mt. Lemmon Survey MPS 203138
2007 03 11.49197 14 18 48.42 -10 55 18.3 20.4 V G96 – Mt. Lemmon Survey MPS 203138
2007 05 11.14802 13 40 35.03 -07 45 24.1 20.9 V 691 – Steward Observatory, Kitt Peak-Spacewatch MPS 208988
2007 05 11.16136 13 40 34.52 -07 45 22.3 20.9 V 691 – Steward Observatory, Kitt Peak-Spacewatch MPS 208988
2007 05 11.17183 13 40 34.12 -07 45 20.5 20.8 V 691 – Steward Observatory, Kitt Peak-Spacewatch MPS 208988
2009 09 23.29919 00 31 18.22 -00 34 19.7 20.0 V G96 – Mt. Lemmon Survey MPS 295874
2009 09 23.30904 00 31 17.79 -00 34 22.2 20.1 V G96 – Mt. Lemmon Survey MPS 295874
2009 09 23.31883 00 31 17.36 -00 34 24.9 20.1 V G96 – Mt. Lemmon Survey MPS 295874
2009 09 23.32871 00 31 16.89 -00 34 28.1 20.0 V G96 – Mt. Lemmon Survey MPS 295874
2009 10 26.18026 00 08 46.57 -02 39 19.1 20.2 V G96 – Mt. Lemmon Survey MPS 300719
2009 10 26.18705 00 08 46.35 -02 39 20.1 20.4 V G96 – Mt. Lemmon Survey MPS 300719
2009 10 26.19368 00 08 46.17 -02 39 21.0 20.4 V G96 – Mt. Lemmon Survey MPS 300719
2009 10 26.20029 00 08 45.92 -02 39 21.7 20.5 V G96 – Mt. Lemmon Survey MPS 300719
2010 12 01.27510 06 18 01.60 +24 06 22.7 20.3 V 691 – Steward Observatory, Kitt Peak-Spacewatch MPS 358957
2010 12 01.29630 06 18 00.67 +24 06 24.2 20.2 V 691 – Steward Observatory, Kitt Peak-Spacewatch MPS 358957
2010 12 01.31407 06 17 59.88 +24 06 25.4 20.3 V 691 – Steward Observatory, Kitt Peak-Spacewatch MPS 358957
2011 03 06.14697 05 39 09.68 +24 48 59.9 20.6 V G96 – Mt. Lemmon Survey MPS 373438
2011 03 06.17377 05 39 10.54 +24 49 00.5 20.3 V G96 – Mt. Lemmon Survey MPS 373438
2011 03 06.18182 05 39 10.87 +24 49 00.5 20.3 V G96 – Mt. Lemmon Survey MPS 373438
2012 02 22.33959 12 15 41.29 +02 19 40.3 20.3 V 691 – Steward Observatory, Kitt Peak-Spacewatch MPS 414074
2012 02 22.35751 12 15 40.76 +02 19 44.4 20.1 V 691 – Steward Observatory, Kitt Peak-Spacewatch MPS 414074
2012 02 22.37546 12 15 40.16 +02 19 48.4 20.3 V 691 – Steward Observatory, Kitt Peak-Spacewatch MPS 414074
2012 02 26.29398 12 13 34.82 +02 35 54.4 20.0 V 691 – Steward Observatory, Kitt Peak-Spacewatch MPS 416032
2012 02 26.31192 12 13 34.18 +02 35 58.8 20.2 V 691 – Steward Observatory, Kitt Peak-Spacewatch MPS 416032
2012 02 26.32987 12 13 33.54 +02 36 03.5 20.3 V 691 – Steward Observatory, Kitt Peak-Spacewatch MPS 416032
2012 03 05.28244 12 08 34.39 +03 12 06.4 20.1 V 691 – Steward Observatory, Kitt Peak-Spacewatch MPS 416032
2012 03 05.30019 12 08 33.66 +03 12 11.4 20.1 V 691 – Steward Observatory, Kitt Peak-Spacewatch MPS 416032
2012 03 05.31790 12 08 32.90 +03 12 16.6 20.1 V 691 – Steward Observatory, Kitt Peak-Spacewatch MPS 416032
2012 03 12.20012 12 03 38.49 +03 45 34.3   691 – Steward Observatory, Kitt Peak-Spacewatch MPS 417123
2012 03 12.21786 12 03 37.69 +03 45 39.2   691 – Steward Observatory, Kitt Peak-Spacewatch MPS 417123
2012 03 12.23559 12 03 36.88 +03 45 44.7   691 – Steward Observatory, Kitt Peak-Spacewatch MPS 417123
2012 03 13.31358 12 02 48.58 +03 51 01.5 19.1 V 703 – Catalina Sky Survey MPS 417123
2012 03 13.31956 12 02 48.33 +03 51 03.9 19.5 V 703 – Catalina Sky Survey MPS 417123
2012 03 13.32565 12 02 48.01 +03 51 05.2 20.2 V 703 – Catalina Sky Survey MPS 417123
2012 03 13.33162 12 02 47.76 +03 51 06.0 19.6 V 703 – Catalina Sky Survey MPS 417123
2012 03 16.21533 12 00 37.35 +04 05 10.9 19.9 V 691 – Steward Observatory, Kitt Peak-Spacewatch MPS 423626
2012 03 16.23301 12 00 36.54 +04 05 16.1 20.0 V 691 – Steward Observatory, Kitt Peak-Spacewatch MPS 423626
2012 03 16.25071 12 00 35.70 +04 05 21.2 20.4 V 691 – Steward Observatory, Kitt Peak-Spacewatch MPS 423626
2012 03 17.37431 11 59 44.19 +04 10 48.2 19.5 V G96 – Mt. Lemmon Survey MPS 418343
2012 03 17.38127 11 59 43.83 +04 10 50.3 19.6 V G96 – Mt. Lemmon Survey MPS 418343
2012 03 17.38819 11 59 43.47 +04 10 52.2 19.3 V G96 – Mt. Lemmon Survey MPS 418343
2012 03 17.39518 11 59 43.18 +04 10 54.0 19.4 V G96 – Mt. Lemmon Survey MPS 418343
2012 03 23.24200 11 55 15.27 +04 38 31.5 19.8 V G96 – Mt. Lemmon Survey MPS 418343
2012 03 23.24926 11 55 14.95 +04 38 33.6 19.7 V G96 – Mt. Lemmon Survey MPS 418343
2012 03 23.25622 11 55 14.59 +04 38 35.4 19.7 V G96 – Mt. Lemmon Survey MPS 418343
2012 03 23.26321 11 55 14.26 +04 38 37.3 19.7 V G96 – Mt. Lemmon Survey MPS 418343
2012 03 27.33065 11 52 10.926 +04 56 43.47 20.1 w F51 – Pan-STARRS 1, Haleakala MPS 420153
2012 03 27.34509 11 52 10.264 +04 56 47.18 20.2 w F51 – Pan-STARRS 1, Haleakala MPS 420153
2012 03 27.35953 11 52 09.597 +04 56 50.89 20.2 w F51 – Pan-STARRS 1, Haleakala MPS 420153
2012 03 27.37400 11 52 08.931 +04 56 54.65 20.1 w F51 – Pan-STARRS 1, Haleakala MPS 420153
2012 04 11.13746 11 42 19.33 +05 49 34.6   691 – Steward Observatory, Kitt Peak-Spacewatch MPS 420765
2012 04 11.16487 11 42 18.36 +05 49 38.2   691 – Steward Observatory, Kitt Peak-Spacewatch MPS 420765
